Rochelle, IL

7:35 AM CDT on August 25, 2016 (GMT -0500)
Rochelle

Weather History for KRPJ - April, 2013

Change the Weather History Date:

Saturday, April 27, 2013

  Actual Average (KRFD) Record (KRFD)
Temperature  
Mean Temperature 52 °F 54 °F  
Max Temperature 65 °F 65 °F 88 °F (1915)
Min Temperature 39 °F 42 °F 26 °F (1933)
Degree Days  
Heating Degree Days 13 12  
Month to date heating degree days 443  
Since 1 July heating degree days 6307  
Cooling Degree Days 0 0  
Month to date cooling degree days 0  
Year to date cooling degree days 0  
Growing Degree Days 2 (Base 50)    
Moisture  
Dew Point 44 °F    
Average Humidity 70    
Maximum Humidity 98    
Minimum Humidity 38    
Precipitation  
Precipitation 0.00 in 0.11 in 1.91 in (1956)
Month to date precipitation 2.99  
Year to date precipitation 8.09  
Snow  
Snow 0.00 in 0.00 in 1.00 in (1979)
Month to date snowfall 0.9  
Since 1 July snowfall 36.7  
Snow Depth -    
Sea Level Pressure  
Sea Level Pressure 30.16 in    
Wind  
Wind Speed 6 mph (SSE)    
Max Wind Speed 16 mph    
Max Gust Speed 23 mph    
Visibility 9 miles    
Events      
T = Trace of Precipitation, MM = Missing Value Source: NWS Daily Summary

Daily Weather History Graph

Daily Weather History Graph

Search for Another Location

Airport or City:

Trip Planner

Search our weather history database for the weather conditions in past years. The results will help you decide how hot, cold, wet, or windy it might be!

Date:

Astronomy

Apr. 27, 2013 Rise Set
Actual Time 5:57 AM CDT 7:50 PM CDT
Civil Twilight 5:27 AM CDT 8:20 PM CDT
Nautical Twilight 4:51 AM CDT 8:57 PM CDT
Astronomical Twilight 4:11 AM CDT 9:37 PM CDT
Moon 10:21 PM CDT (4/27) 7:14 AM CDT (4/27)
Length of Visible Light 14h 53m
Length of Day
13h 53m
Waning Gibbous, 95% of the Moon is Illuminated
Apr 27
Waning Gibbous
May 2
Last Quarter
May 9
New
May 17
First Quarter
May 24
Full

Hourly Weather History & Observations

Time (CDT) Temp. Windchill Dew Point Humidity Pressure Visibility Wind Dir Wind Speed Gust Speed Precip Events Conditions
12:15 AM 45.1 °F 41.4 °F 43.0 °F 92% 30.29 in 10.0 mi SSW 6.9 mph - N/A   Clear
12:35 AM 45.5 °F 41.3 °F 43.0 °F 91% 30.29 in 10.0 mi SSW 8.1 mph - N/A   Clear
12:55 AM 44.6 °F 40.7 °F 42.3 °F 91% 30.29 in 10.0 mi South 6.9 mph - N/A   Clear
1:15 AM 44.2 °F 39.7 °F 42.3 °F 93% 30.28 in 10.0 mi South 8.1 mph - N/A   Clear
1:35 AM 44.8 °F 41.0 °F 42.4 °F 91% 30.28 in 10.0 mi South 6.9 mph - N/A   Clear
1:55 AM 43.2 °F 39.0 °F 41.4 °F 93% - 10.0 mi SSE 6.9 mph - N/A   Clear
2:15 AM 43.2 °F 39.7 °F 41.4 °F 93% 30.27 in 10.0 mi South 5.8 mph - N/A   Clear
2:35 AM 41.9 °F - 40.5 °F 95% 30.26 in 10.0 mi Calm Calm - N/A   Clear
2:55 AM 42.8 °F 39.3 °F 41.4 °F 95% 30.26 in 10.0 mi South 5.8 mph - N/A   Clear
3:15 AM 41.5 °F 38.6 °F 40.3 °F 95% 30.26 in 7.0 mi South 4.6 mph - N/A   Clear
3:35 AM 41.4 °F 38.4 °F 40.3 °F 96% 30.26 in 7.0 mi South 4.6 mph - N/A   Clear
3:55 AM 41.5 °F - 40.5 °F 96% 30.26 in 7.0 mi Calm Calm - N/A   Clear
4:15 AM 41.2 °F - 40.1 °F 96% 30.26 in 7.0 mi Calm Calm - N/A   Clear
4:35 AM 41.0 °F - 40.1 °F 97% 30.26 in 5.0 mi Calm Calm - N/A   Clear
4:55 AM 40.1 °F - 39.2 °F 97% 30.25 in 5.0 mi Calm Calm - N/A   Clear
5:15 AM 39.7 °F - 39.0 °F 97% 30.25 in 5.0 mi Calm Calm - N/A   Clear
6:35 AM 40.6 °F 37.5 °F 40.1 °F 98% 30.25 in 3.0 mi SSE 4.6 mph - N/A   Clear
6:55 AM 43.0 °F 40.3 °F 42.3 °F 97% 30.25 in 4.0 mi SE 4.6 mph - N/A   Clear
7:15 AM 45.0 °F 42.6 °F 44.1 °F 97% 30.25 in 5.0 mi SE 4.6 mph - N/A   Clear
7:35 AM 47.3 °F - 45.1 °F 92% 30.25 in 7.0 mi South 8.1 mph - N/A   Clear
7:55 AM 48.7 °F - 45.9 °F 90% 30.24 in 7.0 mi South 4.6 mph - N/A   Clear
8:15 AM 50.5 °F - 46.4 °F 86% 30.24 in 10.0 mi South 3.5 mph - N/A   Clear
8:35 AM 52.0 °F - 46.8 °F 82% 30.24 in 10.0 mi SSE 4.6 mph - N/A   Clear
8:55 AM 53.6 °F - 46.9 °F 78% 30.23 in 10.0 mi SE 5.8 mph - N/A   Clear
9:15 AM 54.5 °F - 47.1 °F 76% 30.22 in 10.0 mi SE 5.8 mph - N/A   Clear
9:35 AM 55.9 °F - 47.5 °F 73% 30.21 in 10.0 mi SE 6.9 mph - N/A   Clear
9:55 AM 57.2 °F - 48.0 °F 71% 30.21 in 10.0 mi SSE 9.2 mph - N/A   Clear
10:15 AM 57.6 °F - 47.1 °F 68% 30.21 in 10.0 mi SSE 12.7 mph - N/A   Clear
10:35 AM 58.6 °F - 47.1 °F 66% 30.21 in 10.0 mi SE 9.2 mph - N/A   Clear
10:55 AM 59.4 °F - 46.2 °F 62% 30.20 in 10.0 mi SE 12.7 mph - N/A   Clear
11:15 AM 60.6 °F - 45.3 °F 57% 30.21 in 10.0 mi SSE 12.7 mph - N/A   Clear
11:35 AM 61.2 °F - 45.7 °F 57% 30.21 in 10.0 mi SSE 13.8 mph 18.4 mph N/A   Clear
11:55 AM 62.4 °F - 43.9 °F 51% 30.21 in 10.0 mi SSE 16.1 mph 19.6 mph N/A   Clear
12:15 PM 62.6 °F - 43.2 °F 49% 30.20 in 10.0 mi SSE 12.7 mph - N/A   Clear
12:35 PM 63.3 °F - 42.3 °F 46% 30.19 in 10.0 mi SSE 11.5 mph - N/A   Clear
12:55 PM 63.3 °F - 43.0 °F 47% 30.18 in 10.0 mi SSE 12.7 mph 20.7 mph N/A   Scattered Clouds
1:15 PM 63.9 °F - 43.2 °F 47% 30.17 in 10.0 mi SSE 11.5 mph 17.3 mph N/A   Scattered Clouds
1:35 PM 64.6 °F - 44.4 °F 48% 30.16 in 10.0 mi South 10.4 mph 20.7 mph N/A   Scattered Clouds
1:55 PM 64.2 °F - 44.6 °F 49% 30.15 in 10.0 mi SE 12.7 mph 18.4 mph N/A   Scattered Clouds
2:15 PM 64.2 °F - 43.3 °F 47% 30.15 in 10.0 mi ESE 9.2 mph 16.1 mph N/A   Mostly Cloudy
2:35 PM 65.1 °F - 42.6 °F 44% 30.14 in 10.0 mi South 11.5 mph 23.0 mph N/A   Overcast
2:55 PM 63.9 °F - 42.6 °F 46% 30.13 in 10.0 mi SSE 11.5 mph 16.1 mph N/A   Mostly Cloudy
3:15 PM 63.5 °F - 42.3 °F 46% 30.12 in 10.0 mi ESE 5.8 mph - N/A   Overcast
3:35 PM 63.9 °F - 42.6 °F 46% 30.11 in 10.0 mi ESE 9.2 mph 16.1 mph N/A   Overcast
3:55 PM 64.2 °F - 41.0 °F 43% 30.10 in 10.0 mi South 9.2 mph - N/A   Overcast
4:15 PM 64.6 °F - 39.0 °F 39% 30.09 in 10.0 mi Calm Calm - N/A   Overcast
4:35 PM 65.3 °F - 40.6 °F 40% 30.09 in 10.0 mi South 11.5 mph - N/A   Overcast
4:55 PM 65.3 °F - 40.5 °F 40% 30.08 in 10.0 mi South 6.9 mph - N/A   Overcast
5:15 PM 65.7 °F - 39.0 °F 38% 30.08 in 10.0 mi ESE 4.6 mph - N/A   Overcast
5:35 PM 64.9 °F - 39.7 °F 40% 30.07 in 10.0 mi SE 8.1 mph - N/A   Mostly Cloudy
5:55 PM 64.2 °F - 39.9 °F 41% 30.07 in 10.0 mi ESE 4.6 mph - N/A   Scattered Clouds
6:15 PM 64.0 °F - 41.5 °F 44% 30.06 in 10.0 mi East 6.9 mph - N/A   Mostly Cloudy
6:35 PM 63.5 °F - 42.8 °F 47% 30.05 in 10.0 mi East 4.6 mph - N/A   Overcast
6:55 PM 62.6 °F - 44.2 °F 51% 30.05 in 10.0 mi East 4.6 mph - N/A   Overcast
7:15 PM 62.2 °F - 41.7 °F 47% 30.05 in 10.0 mi East 5.8 mph - N/A   Overcast
7:35 PM 60.8 °F - 46.4 °F 59% 30.04 in 10.0 mi SE 4.6 mph - N/A   Overcast
7:55 PM 59.4 °F - 47.7 °F 65% 30.04 in 10.0 mi SE 5.8 mph - N/A   Overcast
8:15 PM 59.4 °F - 45.9 °F 61% 30.04 in 10.0 mi SSE 10.4 mph - N/A   Overcast
8:35 PM 59.0 °F - 46.6 °F 63% 30.04 in 10.0 mi South 6.9 mph - N/A   Overcast
8:55 PM 57.4 °F - 48.4 °F 72% 30.04 in 10.0 mi SSW 6.9 mph - N/A   Overcast
9:15 PM 56.5 °F - 48.9 °F 76% 30.04 in 10.0 mi SSW 9.2 mph - N/A   Overcast
9:35 PM 55.6 °F - 49.1 °F 79% 30.04 in 10.0 mi South 6.9 mph - N/A   Overcast
9:55 PM 54.1 °F - 49.1 °F 83% 30.04 in 10.0 mi South 5.8 mph - N/A   Mostly Cloudy
10:15 PM 53.2 °F - 48.7 °F 85% 30.03 in 10.0 mi South 3.5 mph - N/A   Mostly Cloudy
10:35 PM 53.1 °F - 48.9 °F 86% 30.02 in 10.0 mi Calm Calm - N/A   Overcast
10:55 PM 53.6 °F - 49.1 °F 85% 30.02 in 10.0 mi Calm Calm - N/A   Overcast
11:15 PM 53.6 °F - 49.3 °F 85% 30.01 in 10.0 mi Calm Calm - N/A   Overcast
11:35 PM 53.6 °F - 49.3 °F 85% 30.01 in 10.0 mi Calm Calm - N/A   Overcast
11:55 PM 53.8 °F - 48.9 °F 84% 30.00 in 10.0 mi Calm Calm - N/A   Overcast